Location: Briquemesnil
(49.8845°N, 2.0870°E)
Time: 18:12:27
(UTC+00:00)

Daily predictions for brighter satellites

Satellite Brightness Start Highest point End
(mag) Time Altitude Azimuth Time Altitude Azimuth Time Altitude Azimuth
USA 281 3.3 18:45:36 10° NNE 18:52:09 63° ESE 18:58:38 10° SSW
Cosmos 2082 4.2 18:55:40 10° S 19:00:41 35° ESE 19:05:45 10° NE
Cosmos 1674 Rocket 3.7 18:57:01 10° N 19:01:16 52° ENE 19:05:28 10° SSE
USA 215 3.3 18:54:46 10° ENE 19:01:18 64° SE 19:07:46 10° SW
Cosmos 1733 Rocket 3.0 18:57:43 10° S 19:01:59 66° E 19:06:18 10° NNE
Landsat 7 4.0 18:57:41 10° SSE 19:02:16 54° ENE 19:06:53 10° N
Lacrosse 5 rocket 2.4 18:58:09 10° W 19:02:16 44° NNW 19:06:12 10° NE
CZ-4C R/B 3.0 18:57:05 10° NW 19:04:04 76° NE 19:12:30 10° SE
Cosmos 2227 Rocket 2.2 18:59:13 10° SSW 19:04:52 81° ESE 19:10:34 10° NNE
Cosmos 1726 3.5 19:02:37 10° SSW 19:05:58 41° WNW 19:09:21 10° N
Cosmos 1378 Rocket 3.6 19:02:11 10° N 19:06:36 62° ENE 19:11:00 10° SSE
Cosmos 1340 Rocket 4.2 19:07:09 10° NNE 19:10:09 21° ENE 19:12:48 11° ESE
Cosmos 2219 3.2 19:04:49 10° SSW 19:10:22 68° ESE 19:15:59 10° NNE
Cosmos 1470 3.2 19:07:58 10° SSE 19:11:37 39° E 19:15:15 10° NNE
Cosmos 2233 Rocket 4.4 19:08:57 10° NNW 19:15:06 69° W 19:21:16 10° S
CZ-4 R/B 2.1 19:12:40 10° S 19:16:29 56° W 19:20:25 10° NNW
RESURS DK-1 3.7 19:13:44 10° SSE 19:16:41 19° ESE 19:19:39 10° ENE
Cosmos 1992 Rocket 4.2 19:13:19 10° S 19:18:14 46° ESE 19:23:13 10° NE
Feng Yun 1-1 Rocket 4.5 19:12:52 10° SSE 19:18:32 80° WSW 19:24:22 10° NNW
Meteor 1-24 Rocket 4.0 19:13:00 10° N 19:18:55 56° ENE 19:24:51 10° SSE
SJ-6B 2.7 19:15:59 10° SSE 19:19:49 89° W 19:23:35 10° NNW
CSL-04 Rocket 3.7 19:14:29 10° SSE 19:19:59 69° ENE 19:25:26 10° N
SJ 16-02 1.6 19:16:00 10° NNW 19:20:18 50° ENE 19:24:28 11° SE
YAOGAN 1 4.5 19:17:13 10° SSW 19:21:07 33° W 19:25:03 10° NNW
ATLAS 2AS CENTAUR R/B 3.8 19:16:25 10° SSE 19:22:21 25° ESE 19:28:09 10° ENE
ISS -1.9 19:20:46 10° W 19:23:32 24° SW 19:26:18 10° SSE
SL-16 R/B 2.5 19:18:17 10° NNW 19:23:58 74° WSW 19:29:37 10° SSE
Cosmos 1503 Rocket 4.5 19:20:50 10° NNW 19:25:55 45° ENE 19:30:19 14° SE
NOSS 2-1 (C) 2.8 19:25:42 10° SSW 19:28:55 54° SE 19:31:59 10° NE
Resurs 1-3 3.6 19:26:32 10° SSE 19:30:54 87° E 19:35:19 10° NNW
USA 186 2.1 19:30:22 10° S 19:33:28 67° W 19:36:40 10° NNW
NOSS 2-1 (D) 2.7 19:30:19 10° SSW 19:33:40 62° SE 19:36:50 10° NE
Aureole 1 Rocket 4.1 19:31:54 10° N 19:35:10 22° NE 19:36:42 17° E
Cosmos 1486 Rocket 4.0 19:30:09 10° NNW 19:35:29 80° ENE 19:40:45 10° SSE
H-2A R/B 4.2 19:33:56 15° E 19:35:51 20° ENE 19:39:04 10° NNE
USA 267 3.5 19:31:34 11° SE 19:37:47 69° SW 19:44:20 10° WNW
Cosmos 2263 Rocket 2.4 19:32:43 10° S 19:37:59 46° ESE 19:43:17 10° NE
Meteor 1-15 Rocket 4.3 19:32:57 10° S 19:38:48 79° E 19:44:44 10° NNE
Cosmos 1908 Rocket 3.6 19:35:25 10° S 19:39:47 57° E 19:44:09 10° NNE
Cosmos 1758 4.1 19:37:32 14° SSE 19:40:14 30° E 19:43:42 10° NNE
Resurs 01 Rocket 1.8 19:36:36 13° SE 19:40:19 52° ENE 19:44:37 10° N
NOSS 3-4 (A) 3.6 19:34:53 10° SW 19:40:32 72° NW 19:46:48 10° NE
NOSS 3-4 (C) 3.6 19:34:59 10° SW 19:40:38 73° NW 19:46:54 10° NE
ATLAS 3B R/B 3.6 19:34:06 10° NW 19:41:12 43° NNE 19:47:05 16° E
GEOS 3 Rocket 3.8 19:43:05 10° NE 19:48:24 54° SE 19:53:39 10° SSW
Meteor 2-15 4.4 19:42:57 10° N 19:49:07 88° E 19:55:13 10° S
Cosmos 2034 Rocket 4.1 19:43:15 10° N 19:49:21 57° ENE 19:54:36 14° SSE
Cosmos 1703 4.0 19:47:32 10° N 19:51:03 33° ENE 19:52:15 27° ESE
Cosmos 1777 Rocket 4.4 19:47:52 10° NNW 19:52:56 48° ENE 19:55:52 23° ESE
Cosmos 220 Rocket 4.2 19:49:25 10° NNW 19:53:36 69° WSW 19:57:14 14° SSE
Meteor 2-8 Rocket 4.4 19:48:26 10° N 19:54:38 87° E 20:00:49 10° S
Cosmos 1975 Rocket 3.4 19:52:45 10° N 19:57:04 47° ENE 19:59:17 26° SE
SL-4 R/B 2.4 19:52:47 10° W 19:57:29 74° N 20:00:42 19° ENE
ADEOS Rocket 4.3 19:53:49 19° ESE 19:57:41 32° NE 20:04:04 10° N
Cosmos 1300 Rocket 4.3 19:56:51 27° ESE 19:58:05 31° E 20:01:54 10° NNE
Meteor 2-15 Rocket 4.4 19:53:29 10° N 19:59:40 82° E 20:05:47 10° SSE
Okean O Rocket 3.7 19:56:32 10° SSW 20:00:17 28° W 20:04:04 10° NW
IRS-1C Rocket 4.1 19:57:27 10° SSE 20:02:45 84° WSW 20:08:04 10° NNW
ATLAS CENTAUR R/B 4.5 19:51:37 10° WSW 20:06:17 63° NNW 20:13:02 10° ENE
Cosmos 1953 3.9 20:07:38 19° ENE 20:07:38 19° ENE 20:09:40 10° NE
Tsikada Rocket 4.3 20:02:35 16° SSE 20:07:06 44° E 20:12:53 10° NNE
Okean-O 3.2 20:03:29 10° S 20:07:50 58° WSW 20:12:14 10° NNW
Cosmos 2084 4.0 20:06:09 10° NNW 20:09:44 38° NE 20:10:54 30° ENE
Landsat 5 3.2 20:07:07 10° NNE 20:11:06 77° ESE 20:15:12 10° S
USA 245 4.3 20:11:42 31° E 20:12:38 34° ENE 20:17:02 10° N
Ariane Rocket 3.4 20:11:02 30° ESE 20:13:05 46° ENE 20:17:55 10° N
Cosmos 1782 Rocket 3.4 20:10:30 12° S 20:14:30 70° E 20:18:53 10° NNE
Meteor 2-19 Rocket 4.3 20:11:29 10° S 20:17:34 73° E 20:23:39 10° NNE
SPOT 1/Viking Rocket 3.9 20:13:21 11° S 20:18:20 65° WSW 20:23:34 10° NNW
Cosmos 1300 4.0 20:20:49 24° ENE 20:20:49 24° ENE 20:22:55 10° NNE
Cosmos 1943 3.2 20:16:16 10° NNW 20:21:56 85° WSW 20:24:57 29° SSE
Iridium 82 4.4 20:20:52 30° S 20:22:27 84° W 20:26:04 10° N
Cosmos 2227 4.3 20:16:52 10° S 20:22:27 54° ESE 20:28:04 10° NE
Spot 2 Rocket 4.2 20:22:05 32° E 20:23:20 36° ENE 20:27:59 10° N
Cosmos 1354 Rocket 4.0 20:19:31 10° NNW 20:24:50 83° WSW 20:27:35 29° SSE
NOSS 2-1 (E) 3.9 20:24:09 10° WSW 20:27:12 42° NW 20:30:18 10° NNE
Cosmos 1603 3.6 20:22:50 10° NNW 20:28:37 86° ENE 20:31:09 35° SSE
BlueWalker 3 2.5 20:28:27 10° W 20:32:18 56° N 20:33:43 34° NE
SPOT 5 3.0 20:35:23 45° ESE 20:36:29 57° ENE 20:41:28 10° N
ARIANE 5 R/B 4.5 20:38:44 17° NE 20:38:44 17° NE 20:41:22 10° NNE
Sich 1 Rocket 4.4 20:41:36 35° ENE 20:41:36 35° ENE 20:44:55 10° NNE
CARTOSAT-1 3.9 20:39:59 33° S 20:41:44 62° W 20:46:01 10° NNW
Geosat 4.0 20:39:59 41° SSE 20:41:46 79° WSW 20:46:50 10° NNW
Lacrosse 5 rocket 2.9 20:38:09 10° WNW 20:41:49 29° N 20:43:37 21° NE
Cosmos 1025 Rocket 3.6 20:38:21 10° NNW 20:42:33 53° W 20:44:31 28° SSW
Cosmos 1833 Rocket 4.4 20:38:37 10° N 20:42:40 20° NE 20:44:41 16° ENE
NOSS 3-1 (C) 4.3 20:35:53 10° NW 20:42:46 57° NE 20:46:35 32° ESE
USA 215 3.7 20:37:54 10° ENE 20:44:20 62° NNW 20:50:46 10° W
MetOp-B 4.1 20:42:51 36° S 20:45:10 83° WSW 20:50:34 10° NNW
Cosmos 1340 Rocket 4.0 20:43:00 10° NNW 20:46:36 37° W 20:48:16 24° SW
Cosmos 1908 4.4 20:43:29 10° SSW 20:47:03 42° WNW 20:50:38 10° N
Cosmos 1408 3.7 20:45:30 10° N 20:47:35 32° NNE 20:47:35 32° NNE
Spot 2 4.3 20:48:19 58° ESE 20:49:00 66° ENE 20:53:36 10° N
Cosmos 2227 Rocket 4.5 20:45:02 10° W 20:49:37 24° NW 20:54:12 10° NNE
CZ-4C R/B 4.2 20:45:52 10° NW 20:52:29 36° WSW 20:58:39 15° S
H-2A R/B 4.3 20:50:31 10° NE 20:51:12 13° NE 20:51:12 13° NE
RESURS DK-1 3.1 20:50:13 10° SW 20:54:14 52° NW 20:58:17 10° NNE
BREEZE-M DEB (TANK) 4.4 20:51:59 10° W 20:54:05 20° WSW 20:54:05 20° WSW
Terra 1.9 20:56:29 55° ENE 20:56:35 55° ENE 21:01:13 10° N
Cosmos 2151 Rocket 4.5 20:58:24 36° NE 20:58:24 36° NE 21:01:27 10° NNE
Cosmos 1825 4.1 20:54:35 10° NNE 20:56:07 19° NNE 20:56:07 19° NNE
SJ 16-02 3.6 20:55:11 10° NW 20:58:24 20° W 21:01:24 11° SW
Cosmos 1892 4.0 21:03:20 10° N 21:05:28 30° NNE 21:05:28 30° NNE
Cosmos 1634 Rocket 4.0 21:01:20 10° NNW 21:07:41 80° W 21:10:04 41° S
H-2A R/B 2.9 21:10:16 56° SW 21:10:44 59° WSW 21:15:08 10° NNW
NOSS 2-2 (D) 4.3 21:07:51 10° NW 21:12:16 56° NE 21:12:49 54° ENE
ATLAS 2AS CENTAUR R/B 2.8 21:04:53 10° SW 21:12:33 89° SE 21:19:56 10° NE
SME Rocket 4.0 21:11:00 52° SE 21:12:37 70° ENE 21:17:43 10° NNW
In-Cosmos 22 Rocket 4.3 21:10:27 10° N 21:15:38 53° ENE 21:15:38 53° ENE
Timation 2 Rocket 4.0 21:10:02 10° SW 21:16:13 78° WNW 21:22:45 10° NNE
deb Chang Zheng 4 4.1 21:17:40 46° N 21:17:40 46° N 21:20:27 10° NNW
Resurs 01 Rocket 3.9 21:14:07 11° SW 21:17:05 20° W 21:20:22 10° NW
Aureole 1 Rocket 4.2 21:15:41 10° NW 21:18:42 29° W 21:18:42 29° W
ERS-1 Rocket 2.9 21:19:38 75° SSW 21:19:58 80° WSW 21:25:01 10° NNW
Cosmos 1844 4.3 21:22:51 42° ENE 21:22:51 42° ENE 21:26:55 10° NE
Okean 2 Rocket 3.7 21:22:34 49° NNE 21:22:34 49° NNE 21:25:50 10° NNE
Cosmos 2263 Rocket 3.6 21:16:54 10° WSW 21:22:02 37° NW 21:27:12 10° NNE
Meteor 2-10 Rocket 3.6 21:21:56 54° SW 21:22:56 70° WNW 21:27:56 10° N
Cosmos 1844 Rocket 2.9 21:28:04 56° ENE 21:28:04 56° ENE 21:32:34 10° NNE
Meteor 2-14 Rocket 4.4 21:30:45 51° SSW 21:32:24 79° W 21:38:36 10° N
ATLAS 3B R/B 2.9 21:24:58 10° NW 21:32:34 75° SW 21:34:21 56° SSE
SPOT 3 Rocket 4.0 21:33:45 49° SW 21:34:26 53° W 21:39:34 10° NNW
SL-4 R/B 3.0 21:32:23 10° WNW 21:35:56 51° WNW 21:35:56 51° WNW
Cosmos 1536 Rocket 4.4 21:37:25 10° NNW 21:41:00 48° WNW 21:41:00 48° WNW
Cosmos 1953 3.8 21:43:03 36° NW 21:43:03 36° NW 21:46:20 10° N
ADEOS Rocket 3.5 21:40:45 50° SSW 21:42:35 68° WSW 21:50:00 10° NNW
NOSS 2-2 (E) 4.1 21:39:14 10° NW 21:43:34 75° W 21:43:34 75° W
Cosmos 2344 4.1 21:37:29 10° NW 21:46:04 82° SW 21:49:32 50° SSE
Cosmos 371 Rocket 4.1 21:41:54 10° NNW 21:45:37 45° NNE 21:45:37 45° NNE
Ariane Rocket 4.5 21:51:12 26° WSW 21:52:14 28° W 21:56:35 10° NW
NOSS 3-1 (A) 4.0 21:45:24 10° NW 21:52:33 74° NE 21:54:04 60° ESE
ASTEX 1 4.1 22:00:36 50° N 22:00:36 50° N 22:04:14 10° N
Cosmos 1937 Rocket 3.9 21:54:08 10° NNW 21:58:25 58° N 21:58:25 58° N
Meteor 2-16 Rocket 4.5 22:10:16 72° W 22:10:19 72° WNW 22:16:26 10° N
Cosmos 1898 Rocket 4.1 22:06:02 10° NNW 22:10:20 54° NW 22:10:20 54° NW
ARIANE 5 R/B 4.1 22:16:15 34° NNW 22:16:15 34° NNW 22:18:52 10° NNW
Lacrosse 5 rocket 3.7 22:17:25 10° NW 22:18:56 21° NW 22:18:56 21° NW
ATLAS CENTAUR R/B 3.6 22:12:29 10° WNW 22:21:58 49° N 22:23:02 44° NE
USA 215 4.0 22:22:11 18° ENE 22:26:51 48° N 22:33:04 10° WNW
Cosmos 1833 Rocket 3.2 22:21:55 10° NNW 22:26:22 55° N 22:26:22 55° N
H-2A R/B 4.0 22:25:57 10° N 22:28:11 27° NNW 22:28:11 27° NNW
NOSS 3-1 (C) 4.4 22:26:42 10° NW 22:33:51 52° WSW 22:33:58 52° SW
Terra 3.9 22:35:13 21° W 22:35:13 21° W 22:38:09 10° NW
Cosmos 2082 Rocket 3.3 22:30:01 10° NNW 22:34:29 36° NNE 22:34:29 36° NNE
Cosmos 2278 Rocket 4.1 22:52:24 20° NE 22:52:24 20° NE 22:54:11 10° NE
ATLAS 2AS CENTAUR R/B 4.1 22:57:25 10° W 23:04:20 38° NNW 23:10:58 10° NE
Cosmos 1844 Rocket 4.5 23:09:36 23° WNW 23:11:24 27° NW 23:16:08 10° NNE
USA 229 DEB 4.1 23:10:33 10° NW 23:16:41 62° WNW 23:16:41 62° WNW
USA 229 4.1 23:10:38 10° NW 23:16:47 62° WNW 23:16:47 62° WNW
COSMOS 2406 4.3 23:21:53 10° NNW 23:25:26 40° NNW 23:25:26 40° NNW
